Date String (YYYY-MM-DD hh:mm:ss) UTC,Instrument flags,Ambient pressure (hPa),Sample flow (lpm),Bypass flow (lpm),Sample temperature (°C),Ambient temperature (°C),ASC tube jacket temperature (°C),LED temperature (°C),Box temperature (°C),Sample RH (%),Span deviation,Mass concentration (μg/m³),Mass concentration (μg/m³),Mass concentration (μg/m³)
DateTimeUTC,F1_M11,P_M11,Q1_M11,Q2_M11,T1_M11,T2_M11,T3_M11,T4_M11,T5_M11,U1_M11,ZSPAN_M11,X0_M11,X2_M11,X1_M11
2021-11-10 06:00:00,,0821.9,5.00,0.00,26.9,26.1,00.0,36.1,28.6,13.1,-000.5,0013.76,0005.35,0004.65
2021-11-10 06:01:00,,0821.8,4.99,0.00,27.0,26.1,00.0,36.0,28.7,12.9,0000.0,0013.17,0004.85,0004.22
2021-11-10 06:02:00,,0821.8,4.98,0.00,27.0,26.1,00.0,36.1,28.7,13.1,0000.0,0012.83,0004.70,0004.09
2021-11-10 06:03:00,,0821.9,5.01,0.00,27.0,26.1,00.0,36.0,28.7,13.0,0000.0,0011.84,0004.74,0004.14
2021-11-10 06:04:00,,0822.0,4.99,0.00,27.0,26.1,00.0,36.0,28.7,13.1,0000.0,0010.73,0004.47,0003.89
2021-11-10 06:05:00,,0821.8,5.01,0.00,27.0,26.2,00.0,36.0,28.8,13.2,0000.0,0010.13,0004.28,0003.73
2021-11-10 06:06:00,,0821.8,5.00,0.00,27.0,26.2,00.0,36.0,28.7,13.3,0000.0,0010.51,0004.38,0003.82
2021-11-10 06:07:00,,0821.8,5.00,0.00,27.0,26.2,00.0,36.0,28.8,13.0,0000.0,0010.55,0004.47,0003.89
2021-11-10 06:08:00,,0821.8,5.00,0.00,27.0,26.2,00.0,36.1,28.8,12.9,0000.0,0009.82,0004.31,0003.76
2021-11-10 06:09:00,,0821.8,5.01,0.00,27.0,26.2,00.0,36.0,28.7,12.8,0000.0,0009.61,0004.03,0003.51
2021-11-10 06:10:00,,0821.8,5.01,0.00,27.0,26.2,00.0,36.0,28.7,12.9,0000.0,0008.11,0003.74,0003.28
2021-11-10 06:11:00,,0821.8,4.99,0.00,27.0,26.2,00.0,36.1,28.7,13.1,0000.0,0008.18,0003.54,0003.08
2021-11-10 06:12:00,,0821.8,5.01,0.00,27.0,26.2,00.0,36.1,28.8,13.2,0000.0,0008.44,0003.44,0002.97
2021-11-10 06:13:00,,0821.8,5.00,0.00,27.0,26.2,00.0,36.1,28.8,13.1,0000.0,0008.28,0003.35,0002.85
2021-11-10 06:14:00,,0821.8,5.00,0.00,27.0,26.2,00.0,36.1,28.8,13.0,0000.0,0008.14,0003.20,0002.64
2021-11-10 06:15:00,,0821.8,5.00,0.00,27.1,26.2,00.0,36.1,28.8,13.0,0000.0,0009.27,0003.03,0002.47
2021-11-10 06:16:00,,0821.8,5.00,0.00,27.1,26.2,00.0,36.1,28.8,13.0,0000.0,0008.96,0002.73,0002.22
2021-11-10 06:17:00,,0821.7,5.01,0.00,27.1,26.2,00.0,36.1,28.8,13.1,0000.0,0008.36,0002.35,0001.93
2021-11-10 06:18:00,,0821.8,4.99,0.00,27.1,26.3,00.0,36.1,28.9,13.2,0000.0,0008.94,0002.14,0001.78
2021-11-10 06:19:00,,0821.8,4.99,0.00,27.1,26.3,00.0,36.1,28.9,14.3,0000.0,0009.89,0002.89,0002.43
2021-11-10 06:20:00,,0821.8,5.01,0.00,27.1,26.3,00.0,36.1,28.9,15.3,-000.5,0010.92,0003.93,0003.51
2021-11-10 06:21:00,,0821.8,5.02,0.00,27.1,26.3,00.0,36.1,28.9,15.5,-002.1,0012.49,0005.16,0004.57
2021-11-10 06:22:00,,0821.8,4.99,0.00,27.1,26.3,00.0,36.1,28.9,14.8,-002.0,0013.58,0006.08,0005.35
2021-11-10 06:23:00,,0821.8,5.00,0.00,27.1,26.3,00.0,36.1,28.9,14.3,-001.6,0014.03,0006.66,0005.81
2021-11-10 06:24:00,,0821.8,5.01,0.00,27.1,26.3,00.0,36.1,28.9,14.1,-001.2,0014.77,0007.14,0006.20
2021-11-10 06:25:00,,0821.8,4.98,0.00,27.1,26.3,00.0,36.1,28.9,14.0,-000.9,0015.46,0007.56,0006.56
2021-11-10 06:26:00,,0821.7,5.01,0.00,27.2,26.3,00.0,36.1,29.0,14.0,-000.9,0015.50,0007.97,0006.92
2021-11-10 06:27:00,,0821.8,5.00,0.00,27.2,26.3,00.0,36.1,29.0,13.8,-000.7,0016.47,0008.34,0007.21
2021-11-10 06:28:00,,0821.7,5.01,0.00,27.2,26.3,00.0,36.1,28.9,14.4,-000.3,0018.37,0008.93,0007.65
2021-11-10 06:29:00,,0821.7,5.00,0.00,27.2,26.3,00.0,36.1,28.9,14.0,-000.3,0019.03,0009.34,0008.02
2021-11-10 06:30:00,,0821.7,5.00,0.00,27.2,26.3,00.0,36.2,28.9,14.0,-000.4,0019.58,0009.50,0008.14
2021-11-10 06:31:00,,0821.7,5.00,0.00,27.2,26.3,00.0,36.2,29.0,13.7,-000.0,0019.45,0009.00,0007.69
2021-11-10 06:32:00,,0821.7,5.00,0.00,27.2,26.3,00.0,36.2,29.0,13.7,0000.5,0018.22,0008.06,0006.89
2021-11-10 06:33:00,,0821.7,5.00,0.00,27.1,26.3,00.0,36.2,28.9,13.7,0000.9,0017.19,0007.40,0006.27
2021-11-10 06:34:00,,0821.7,5.00,0.00,27.1,26.3,00.0,36.2,28.9,13.6,0000.7,0016.71,0007.01,0005.94
2021-11-10 06:35:00,,0821.7,4.98,0.00,27.1,26.2,00.0,36.1,28.9,13.4,0000.4,0016.05,0006.59,0005.59
2021-11-10 06:36:00,,0821.6,5.02,0.00,27.1,26.2,00.0,36.1,28.8,13.2,0000.3,0015.33,0006.18,0005.22
2021-11-10 06:37:00,,0821.6,4.99,0.00,27.1,26.2,00.0,36.1,28.8,13.2,0000.4,0013.99,0005.77,0004.86
2021-11-10 06:38:00,,0821.5,5.00,0.00,27.1,26.2,00.0,36.1,28.8,13.1,0000.3,0012.69,0005.33,0004.51
2021-11-10 06:39:00,,0821.6,4.99,0.00,27.1,26.2,00.0,36.1,28.8,13.1,-000.3,0010.60,0004.65,0003.97
2021-11-10 06:40:00,,0821.6,4.99,0.00,27.1,26.2,00.0,36.1,28.8,13.1,0000.0,0009.40,0004.15,0003.52
2021-11-10 06:41:00,,0821.6,5.01,0.00,27.1,26.2,00.0,36.1,28.8,13.2,0000.0,0007.69,0003.59,0002.98
2021-11-10 06:42:00,,0821.6,4.99,0.00,27.0,26.1,00.0,36.1,28.7,13.7,0000.0,0007.37,0003.38,0002.68
2021-11-10 06:43:00,,0821.6,4.99,0.00,27.0,26.1,00.0,36.1,28.7,13.7,0000.0,0007.36,0003.34,0002.59
2021-11-10 06:44:00,,0821.6,5.01,0.00,27.0,26.1,00.0,36.1,28.7,13.5,0000.0,0006.63,0003.05,0002.27
2021-11-10 06:45:00,,0821.6,5.00,0.00,27.0,26.0,00.0,36.1,28.7,13.7,0000.0,0005.83,0002.74,0002.06
2021-11-10 06:46:00,,0821.5,5.01,0.00,26.9,26.0,00.0,36.1,28.6,13.4,0000.0,0005.60,0002.60,0001.99
2021-11-10 06:47:00,,0821.6,5.00,0.00,26.9,26.0,00.0,36.1,28.6,13.4,0000.0,0005.62,0002.46,0001.91
2021-11-10 06:48:00,,0821.7,5.00,0.00,27.0,26.1,00.0,36.1,28.7,13.4,0000.0,0006.05,0002.35,0001.83
2021-11-10 06:49:00,,0821.7,5.01,0.00,27.0,26.1,00.0,36.1,28.7,13.4,0000.0,0006.03,0002.35,0001.81
2021-11-10 06:50:00,,0821.7,5.00,0.00,27.0,26.1,00.0,36.1,28.7,13.5,0000.0,0006.16,0002.40,0001.86
2021-11-10 06:51:00,,0821.6,4.99,0.00,27.0,26.1,00.0,36.0,28.8,15.0,0000.0,0008.77,0003.33,0002.75
2021-11-10 06:52:00,,0821.5,5.01,0.00,27.0,26.1,00.0,36.0,28.7,15.5,-000.1,0012.11,0004.67,0003.97
2021-11-10 06:53:00,,0821.5,5.00,0.00,27.0,26.1,00.0,36.0,28.8,15.0,-001.3,0014.19,0005.61,0004.71
2021-11-10 06:54:00,,0821.5,5.00,0.00,27.0,26.1,00.0,36.0,28.8,14.3,-001.3,0014.29,0005.78,0004.90
2021-11-10 06:55:00,,0821.5,5.00,0.00,27.0,26.1,00.0,36.0,28.8,14.3,-000.6,0014.83,0006.16,0005.22
2021-11-10 06:56:00,,0821.5,5.01,0.00,27.0,26.2,00.0,36.0,28.8,14.2,-000.9,0015.42,0006.55,0005.53
2021-11-10 06:57:00,,0821.5,4.99,0.00,27.0,26.2,00.0,36.0,28.8,14.4,-000.9,0016.90,0006.98,0005.87
2021-11-10 06:58:00,,0821.6,5.02,0.00,27.0,26.2,00.0,36.0,28.8,14.6,-000.7,0018.38,0007.64,0006.38
2021-11-10 06:59:00,,0821.5,4.99,0.00,27.0,26.2,00.0,36.0,28.8,14.8,-000.9,0019.10,0008.42,0007.04
